Location: Red Bud (historical)
(37.7759°N, 88.4053°W)
Time: 06:09:17
(UTC+00:00)

Tiangong - Pass Details

Date: 27 June 2021
Orbit: 373 x 385 km, 41.5° (Epoch: 04 August)

Event Time Altitude Azimuth Distance (km) Brightness Sun altitude
Rises 09:49:04 0° 289° (WNW) 2,239 4.6 -8.1°
Reaches altitude 10° 09:51:08 10° 292° (WNW) 1,389 3.6 -7.8°
Maximum altitude 09:54:16 73° 18° (NNE) 400 1.3 -7.3°
Drops below altitude 10° 09:57:24 10° 103° (ESE) 1,394 4.5 -6.8°
Sets 09:59:29 0° 105° (ESE) 2,248 5.6 -6.5°
